Flag for Spain Weather past 2 weeks in Sevilla, Spain

Now
70 °F

Clear.


Feels Like: 70 °F
Forecast: 64 / 93 °F
Wind: 2 mph from Southeast

Location: Sevilla / San Pablo

Current Time: Jul 23, 2014 at 6:39:09 AM

Latest Report: Jul 23, 2014 at 6:00 AM


Visibility: 10 mi

Pressure: 29.86 "Hg

Humidity: 64%

Dew point: 57 °F

Location of SevillaLocation

Historic Weather in Sevilla — Graph

°F

Sevilla temperature yesterday

Maximum temperature yesterday: 99 °F (at 6:00 PM)
Minimum temperature yesterday: 66 °F (at 7:00 AM)
Average temperature yesterday: 82 °F

Past Weeks' High & Low Weather Summary

 TemperatureHumidityPressure
High102 °F (Jul 16, 5:30 PM)100% (Jul 14, 4:30 AM)30.09 "Hg (Jul 14, 4:30 AM)
Low63 °F (Jul 8, 5:00 AM)12% (Jul 14, 6:30 PM)29.86 "Hg (Jul 9, 5:00 PM)
Average81 °F48%29.97 "Hg
* Reported Jul 8 5:00 AM — Jul 23 5:30 AM, Sevilla, Weather by CustomWeather, © 2014

Note: Actual official high and low records may vary slightly from our data, if they occured in-between our weather recording intervals... More about our weather records

Advertising

Sevilla weather history for previous 24 hours

 ConditionsComfort  
Time TempWeatherWind HumidityBarometerVisibility
5:30 AM
Jul 23
70 °FClear.2 mph64%29.86 "Hg10 mi
5:00 AM70 °FClear.1 mph64%29.86 "Hg10 mi
4:30 AM72 °FClear.1 mph61%29.89 "Hg10 mi
4:00 AM73 °FClear.2 mph57%29.89 "Hg10 mi
3:30 AM73 °FPassing clouds.7 mph57%29.89 "HgN/A
1:00 AM79 °FClear.6 mph39%29.89 "Hg10 mi
7:00 PM
Jul 22
99 °FPassing clouds.8 mph15%29.86 "HgN/A
6:30 PM99 °FPassing clouds.5 mph15%29.86 "HgN/A
6:00 PM99 °FPassing clouds.8 mph15%29.86 "HgN/A
5:30 PM97 °FPassing clouds.6 mph17%29.86 "HgN/A
5:00 PM97 °FPassing clouds.7 mph17%29.89 "HgN/A
4:30 PM97 °FSunny.5 mph19%29.89 "Hg10 mi
4:00 PM97 °FSunny.2 mph19%29.89 "Hg10 mi
3:30 PM95 °FSunny.3 mph20%29.92 "Hg10 mi
3:00 PM95 °FSunny.2 mph19%29.92 "Hg10 mi
2:30 PM93 °FSunny.2 mph21%29.95 "Hg10 mi
2:00 PM91 °FSunny.2 mph23%29.95 "Hg10 mi
1:30 PM90 °FPassing clouds.5 mph24%29.95 "HgN/A
1:00 PM90 °FSunny.2 mph26%29.98 "Hg10 mi
12:30 PM88 °FSunny.1 mph27%29.98 "Hg10 mi
12:00 PM86 °FSunny.3 mph31%29.98 "Hg10 mi
11:30 AM84 °FSunny.1 mph33%29.98 "Hg10 mi
11:00 AM82 °FSunny.1 mph35%29.98 "Hg10 mi
10:30 AM82 °FSunny.No wind35%29.98 "Hg10 mi
10:00 AM79 °FPassing clouds.5 mph39%30.01 "HgN/A
9:30 AM75 °FPassing clouds.7 mph50%29.98 "HgN/A
9:00 AM72 °FPassing clouds.3 mph57%29.98 "HgN/A
8:30 AM70 °FSunny.6 mph60%29.98 "Hg10 mi
8:00 AM66 °FPassing clouds.5 mph64%29.98 "HgN/A
7:30 AM66 °FClear.3 mph68%29.98 "Hg10 mi
7:00 AM66 °FClear.3 mph68%29.98 "Hg10 mi
6:30 AM68 °FClear.2 mph64%29.98 "Hg10 mi
6:00 AM68 °FClear.No wind60%29.98 "Hg10 mi
Weather by CustomWeather, © 2014

See weather overviewHow to use our weather pages